TimeEST,TemperatureF,Dew PointF,Humidity,Sea Level PressureIn,VisibilityMPH,Wind Direction,Wind SpeedMPH,Gust SpeedMPH,PrecipitationIn,Events,Conditions,WindDirDegrees,DateUTC
12:54 AM,28.0,24.1,85,29.78,9.0,Calm,Calm,-,N/A,,Clear,0,2014-02-15 05:54:00
1:54 AM,27.0,24.1,89,29.78,8.0,ENE,4.6,-,N/A,,Clear,60,2014-02-15 06:54:00
2:54 AM,33.1,28.0,82,29.75,10.0,ENE,8.1,-,N/A,,Partly Cloudy,60,2014-02-15 07:54:00
3:54 AM,34.0,27.0,75,29.75,10.0,ENE,8.1,-,N/A,,Clear,60,2014-02-15 08:54:00
4:54 AM,36.0,27.0,70,29.72,10.0,ENE,12.7,-,N/A,,Scattered Clouds,70,2014-02-15 09:54:00
5:54 AM,37.0,27.0,67,29.69,10.0,ENE,11.5,-,N/A,,Overcast,70,2014-02-15 10:54:00
6:54 AM,37.0,28.9,73,29.67,10.0,ENE,13.8,-,N/A,,Overcast,70,2014-02-15 11:54:00
7:54 AM,37.9,30.9,76,29.68,10.0,ENE,15.0,-,N/A,,Overcast,70,2014-02-15 12:54:00
8:54 AM,39.0,35.1,86,29.66,5.0,ENE,10.4,-,0.00,Rain,Light Rain,70,2014-02-15 13:54:00
9:54 AM,41.0,39.0,93,29.61,6.0,ENE,12.7,-,0.01,,Mostly Cloudy,60,2014-02-15 14:54:00
10:54 AM,42.1,39.0,89,29.61,4.0,ENE,12.7,-,0.00,Rain,Light Rain,70,2014-02-15 15:54:00
11:07 AM,42.1,39.9,92,29.60,4.0,ENE,10.4,-,0.01,Rain,Light Rain,70,2014-02-15 16:07:00
11:54 AM,43.0,41.0,93,29.56,7.0,ENE,10.4,-,0.02,,Overcast,70,2014-02-15 16:54:00
12:54 PM,44.1,41.0,89,29.50,9.0,NE,10.4,-,N/A,,Overcast,40,2014-02-15 17:54:00
1:08 PM,44.1,41.0,89,29.48,9.0,NE,15.0,-,N/A,,Overcast,40,2014-02-15 18:08:00
1:54 PM,42.1,39.0,89,29.49,7.0,North,11.5,-,N/A,,Overcast,10,2014-02-15 18:54:00
2:11 PM,39.9,37.0,89,29.51,7.0,North,11.5,21.9,N/A,,Overcast,360,2014-02-15 19:11:00
2:54 PM,37.0,34.0,89,29.50,5.0,North,21.9,27.6,0.00,Rain,Light Rain,350,2014-02-15 19:54:00
3:13 PM,36.0,33.1,89,29.51,4.0,North,17.3,25.3,0.00,Snow,Light Snow,350,2014-02-15 20:13:00
3:29 PM,34.0,32.0,92,29.52,1.8,NNW,18.4,26.5,0.01,Snow,Light Snow,340,2014-02-15 20:29:00
3:40 PM,33.1,32.0,96,29.53,1.2,NNW,16.1,-,0.01,Snow,Light Snow,340,2014-02-15 20:40:00
3:54 PM,33.1,30.9,92,29.53,0.8,NNW,15.0,23.0,0.03,Snow,Light Snow,340,2014-02-15 20:54:00
4:54 PM,32.0,30.9,96,29.57,0.5,NNW,18.4,27.6,0.02,Fog-Snow,Snow,340,2014-02-15 21:54:00
5:42 PM,30.9,30.0,96,29.59,1.0,NNW,24.2,32.2,0.02,Snow,Light Snow,330,2014-02-15 22:42:00
5:54 PM,30.9,30.0,96,29.60,1.0,NNW,20.7,31.1,0.02,Snow,Light Snow,330,2014-02-15 22:54:00
6:12 PM,32.0,30.0,92,29.61,1.5,NNW,20.7,27.6,0.00,Snow,Light Snow,340,2014-02-15 23:12:00
6:18 PM,32.0,30.9,96,29.62,2.0,NNW,23.0,33.4,0.00,Snow,Light Snow,330,2014-02-15 23:18:00
6:45 PM,32.0,30.0,92,29.64,3.0,NNW,21.9,32.2,0.01,Snow,Light Snow,330,2014-02-15 23:45:00
6:54 PM,32.0,30.9,96,29.64,4.0,NW,20.7,28.8,0.01,Snow,Light Snow,320,2014-02-15 23:54:00
7:54 PM,32.0,30.0,92,29.67,7.0,NW,21.9,29.9,0.00,,Overcast,310,2014-02-16 00:54:00
8:16 PM,32.0,28.9,88,29.68,10.0,NW,24.2,31.1,N/A,,Overcast,310,2014-02-16 01:16:00
8:54 PM,32.0,27.0,82,29.70,10.0,NW,20.7,32.2,N/A,,Overcast,310,2014-02-16 01:54:00
9:54 PM,30.0,21.9,72,29.75,10.0,NW,19.6,26.5,N/A,,Clear,310,2014-02-16 02:54:00
10:54 PM,28.9,19.9,69,29.79,10.0,NW,16.1,25.3,N/A,,Partly Cloudy,310,2014-02-16 03:54:00
11:54 PM,28.0,19.0,69,29.81,10.0,NW,19.6,25.3,N/A,,Clear,310,2014-02-16 04:54:00